Regional Weather Roundup
Issued by NWS

Home | Current Version | Previous Version | Text Only | Print | Product List | Glossary Off
Versions: 1 2 3 4 5 6 7 8 9 10 11 12 13 14 15 16 17 18 19 20 21 22 23 24 25 26 27 28 29 30 31 32 33 34 35 36 37 38 39 40 41 42 43 44 45 46 47 48 49 50

000
ASUS44 KMEG 280210
RWRTN
TENNESSEE HOURLY STATE WEATHER ROUNDUP
NATIONAL WEATHER SERVICE MEMPHIS TN
800 PM CST TUE JAN 27 2015

TNZ002-004-019-021-049-052-054-088>092-280300-
WEST TENNESSEE

CITY           SKY/WX    TMP DP  RH WIND       PRES   REMARKS
MEMPHIS INTL   CLEAR     46  33  60 NE6       30.20R
NWS MEMPHIS      N/A     44 N/A N/A MISG        N/A
JACKSON        CLEAR     37  29  72 NE5       30.20S WCI  33
DYERSBURG      CLEAR     39  21  48 NE5       30.22S
UNION CITY     CLEAR     34  28  80 NE3       30.20S
PARIS          CLEAR     28  25  86 NE6       30.22R WCI  22
LEXINGTON      CLEAR     36  28  75 N5        30.19R WCI  32
SAVANNAH         N/A     39  28  65 N7        30.20R WCI  34
$$

TNZ008-025-027-028-033-062-065-066-280300-
NORTH MIDDLE TENNESSEE

CITY           SKY/WX    TMP DP  RH WIND       PRES   REMARKS
NASHVILLE      CLOUDY    36  30  79 N8        30.21S WCI  30
CLARKSVILLE    CLOUDY    36  29  75 N10       30.22R WCI  28
SMYRNA         CLOUDY    36  32  87 N7        30.22R WCI  30
COOKEVILLE     CLOUDY    34  28  80 N3        30.15S
CROSSVILLE     CLOUDY    31  25  78 NW8       30.12R WCI  23
$$

TNZ061-075-076-078-094-096-097-280300-
SOUTH MIDDLE TENNESSEE

CITY           SKY/WX    TMP DP  RH WIND       PRES   REMARKS
FAYETTEVILLE   CLOUDY    36  28  75 N16       30.16R WCI  26
TULLAHOMA      CLOUDY    36  28  75 N9        30.16R WCI  29
WINCHESTER     CLOUDY    36  30  80 N8        30.16R WCI  29
MCMINNVILLE    CLOUDY    34  28  80 N9        30.16S WCI  26
COLUMBIA       CLOUDY    37  30  75 N7        30.18R WCI  32
SHELBYVILLE    CLOUDY    37  30  75 N14       30.19R WCI  29
$$

TNZ017-018-042-046-047-280300-
NORTHEAST TENNESSEE

CITY           SKY/WX    TMP DP  RH WIND       PRES   REMARKS
TRI CITIES     CLEAR     28  19  69 W7        30.08R WCI  21
ELIZABETHTON   CLEAR     27  18  69 VRB5      30.06R WCI  21
$$

TNZ012-013-036-069-073-074-280300-
CENTRAL EAST TENNESSEE

CITY           SKY/WX    TMP DP  RH WIND       PRES   REMARKS
KNOXVILLE      CLOUDY    33  26  75 N10       30.14R WCI  25
OAK RIDGE      CLOUDY    34  28  79 N8        30.17R WCI  27
GATLINBURG     CLOUDY    30  23  74 NW6       30.14R WCI  24
MORRISTOWN     CLOUDY    30  25  80 N5        30.12R WCI  25
$$

TNZ083-085-099-280300-
SOUTHEAST TENNESSEE

CITY           SKY/WX    TMP DP  RH WIND       PRES   REMARKS
CHATTANOOGA    MOCLDY    39  28  64 N16       30.15R WCI  30
$$

SKY/WX REPORTED AS FAIR MEANS FEW OR NO CLOUDS BELOW
12 THOUSAND FEET.



USA.gov is the U.S. government's official web portal to all federal, state and local government web resources and services.